Wetbulb
64.95 64.85 64.47 63.89 63.47 63.96 64.22 63.88 62.70 62.84 63.55 64.36 64.09 64.06 63.98 63.89 63.57 63.53 63.59 63.75 64.16 64.35 64.45 64.51 64.84 65.25 65.54 65.70 65.46 65.17 64.91 64.47 63.85 62.77 61.88 61.79 62.26 62.04 61.67 61.78 61.28 61.17 60.99 60.90 60.85 60.98 61.06 60.80 60.25 59.78 59.36 58.26 58.26 58.69 59.06 59.24 59.40 59.56 59.55 59.07 58.44 58.12 57.94 57.76 57.75 57.96 58.04 58.07 58.25
64.85 64.67 63.78 61.93 61.89 62.89 63.94 63.53 63.06 63.04 63.43 64.40 64.38 64.34 64.24 64.11 63.90 63.89 63.90 63.94 64.41 64.82 64.85 64.74 64.95 65.40 65.85 65.82 65.58 65.49 65.14 64.48 63.83 62.96 62.33 62.27 62.29 62.03 61.79 61.62 61.41 61.03 60.66 60.45 60.80 60.91 61.03 60.68 59.87 59.16 58.63 58.12 58.00 58.24 58.59 59.04 59.22 59.18 59.00 58.91 58.71 58.45 58.23 57.96 58.18 58.10 57.94 57.88 58.14
64.86 64.41 64.06 63.56 63.66 63.97 64.12 63.94 63.70 63.86 64.04 64.17 64.41 64.38 64.23 64.24 64.11 64.07 64.10 64.42 64.83 65.12 65.11 64.87 64.92 65.30 65.65 65.87 65.72 65.59 65.23 64.41 63.94 63.37 62.90 62.56 62.26 62.03 61.71 61.36 61.41 60.85 60.18 60.30 60.89 61.05 60.94 60.73 59.45 58.39 57.63 57.71 57.66 57.88 58.32 59.04 59.02 58.75 58.64 58.73 58.71 58.54 58.27 58.05 58.45 58.53 58.28 57.93 57.91
64.47 64.31 64.12 63.92 63.89 63.93 63.88 63.79 63.86 63.92 64.08 64.25 64.29 64.29 64.14 64.18 64.16 64.27 64.46 64.80 64.88 64.91 64.87 64.92 64.90 65.06 65.21 65.45 65.56 65.53 64.86 63.40 63.70 63.64 63.18 62.74 62.41 62.07 61.71 61.10 61.25 60.90 60.52 60.48 60.90 60.88 60.62 60.45 59.22 58.30 57.76 57.84 57.74 57.89 58.32 58.66 58.62 58.53 58.48 58.55 58.57 58.39 58.26 58.17 58.53 58.81 58.71 58.37 58.36
64.37 64.29 64.22 64.12 64.20 64.35 64.20 64.04 63.94 64.02 64.14 64.13 64.09 64.04 64.08 63.95 64.04 64.35 64.51 64.54 64.51 64.64 64.88 65.12 64.95 64.95 65.06 65.45 65.49 65.37 64.80 63.61 61.99 62.41 63.27 62.99 62.76 62.27 61.83 61.24 61.10 60.80 60.47 60.38 60.72 60.59 60.20 59.96 58.99 58.44 58.27 58.11 57.83 57.94 58.36 58.85 58.75 58.53 58.30 58.19 58.19 58.32 58.50 58.59 58.82 58.93 59.02 58.77 58.52
64.24 64.32 64.24 64.25 64.31 64.39 64.32 63.96 64.12 64.15 64.27 64.14 64.04 63.92 63.90 63.73 63.98 64.32 64.52 64.42 64.55 64.82 64.74 63.92 63.66 63.71 64.28 65.55 65.58 65.20 64.89 64.29 63.07 63.02 63.23 62.99 63.00 62.54 61.99 61.33 60.96 60.62 60.34 60.31 60.46 60.34 59.96 59.57 58.79 58.50 58.45 58.39 57.67 57.84 58.12 58.48 58.50 58.17 58.00 57.91 57.85 57.89 58.04 57.93 58.47 58.87 58.89 58.30 58.01
64.13 64.21 64.10 64.04 63.98 63.97 63.97 63.81 63.96 64.02 64.16 64.04 64.06 64.04 64.00 64.04 64.49 64.71 64.92 64.71 64.68 64.53 64.04 62.77 63.12 63.57 64.35 65.31 65.45 65.46 65.10 64.29 63.76 63.50 63.40 62.99 62.93 62.56 62.00 61.34 60.85 60.48 60.45 60.53 60.47 60.13 59.77 59.24 58.64 58.09 57.42 57.16 57.29 57.47 57.58 57.97 58.01 58.00 57.88 57.61 57.72 57.87 57.79 57.38 57.58 57.59 57.52 57.35 57.15
64.09 64.02 63.97 63.89 63.78 63.84 63.89 63.69 63.77 63.81 63.79 63.86 64.02 64.10 64.35 64.51 64.79 64.98 64.97 64.84 64.58 64.39 64.13 63.83 64.44 64.72 64.76 65.07 65.36 65.40 65.03 64.13 63.44 63.44 63.41 63.16 62.98 62.61 62.06 61.51 60.91 60.55 60.46 60.49 60.28 59.94 59.54 59.02 58.48 58.18 57.91 57.60 57.36 57.22 57.37 57.56 57.76 57.75 57.67 57.64 57.91 58.04 58.01 57.37 57.43 57.36 57.30 57.11 56.85
63.74 63.74 63.87 63.81 63.72 63.76 63.89 63.86 63.94 63.91 63.91 63.94 64.10 64.35 64.78 64.84 64.98 64.92 64.76 64.49 64.12 64.39 64.63 64.65 65.12 65.05 64.80 64.94 65.29 65.36 65.08 64.08 63.41 63.21 63.12 62.86 62.65 62.47 62.13 61.64 61.00 60.66 60.44 60.42 60.30 59.85 59.40 58.81 58.45 58.17 58.08 57.66 57.30 57.23 57.20 57.30 57.49 57.59 57.59 57.76 57.85 57.89 57.91 57.41 57.27 57.39 57.42 57.26 56.89
63.57 63.62 63.75 63.70 63.66 63.64 63.70 63.96 64.06 64.09 64.10 64.07 64.25 64.53 64.20 62.71 63.88 64.53 64.72 64.32 64.08 64.51 64.97 65.14 65.48 65.60 65.49 65.37 65.37 65.29 65.23 64.60 63.58 63.15 62.81 62.26 62.32 62.44 62.13 61.49 60.99 60.59 60.33 60.36 60.26 59.90 59.45 58.63 58.27 58.12 58.04 57.88 57.52 57.34 57.25 57.23 57.32 57.40 57.40 57.48 57.37 57.52 57.62 57.40 57.27 57.36 57.37 57.03 57.03
63.55 63.63 63.74 63.62 63.59 63.48 63.46 63.85 63.77 63.89 63.89 63.96 64.21 64.49 64.29 63.13 63.96 64.37 64.37 64.30 64.43 64.63 64.99 65.70 65.88 65.76 65.70 65.59 65.70 65.70 65.59 65.33 64.31 63.60 63.14 62.48 62.25 62.32 62.51 61.84 61.27 60.76 60.49 60.36 60.30 59.91 59.25 58.59 58.26 58.05 57.94 57.88 57.57 57.37 57.22 57.21 57.25 57.26 57.19 57.32 57.23 57.22 57.08 57.27 57.18 57.19 57.22 56.95 57.05
63.57 63.66 63.71 63.76 63.77 63.54 63.31 63.71 63.66 63.56 63.80 64.04 64.02 64.22 64.51 64.70 64.74 64.35 64.04 64.28 64.12 64.37 64.90 65.87 65.87 65.86 65.80 65.59 65.71 65.45 65.33 65.70 65.01 64.33 63.54 62.81 62.72 63.02 62.84 62.49 61.80 61.35 60.97 60.66 60.39 59.82 59.26 58.72 58.30 57.96 57.71 57.58 57.47 57.35 57.34 57.40 57.12 57.04 57.14 57.03 57.07 56.81 56.65 56.76 56.91 56.84 56.94 57.02 56.78
63.66 63.69 63.72 63.57 63.62 63.36 63.36 63.36 63.44 63.54 63.85 63.79 63.98 64.13 64.21 64.28 64.22 64.10 63.94 63.99 63.80 64.00 64.69 65.50 65.71 65.77 65.79 65.78 65.67 65.49 65.32 65.34 65.15 64.63 63.87 63.11 62.99 62.93 63.00 62.84 62.11 61.56 61.02 60.57 60.19 59.82 59.25 58.84 58.40 58.03 57.62 57.34 57.31 57.43 57.48 57.48 57.21 57.06 57.02 56.81 56.61 56.57 56.52 56.53 56.66 56.78 56.95 57.04 56.63
63.66 63.66 63.57 63.40 63.32 63.12 62.98 63.06 63.15 63.52 63.76 63.78 64.01 64.07 64.07 63.98 63.65 63.51 63.73 63.82 63.78 63.92 64.33 64.74 64.82 65.01 65.26 65.69 65.54 65.36 65.19 64.98 65.00 64.79 64.24 63.38 63.11 62.76 62.56 62.38 61.83 61.33 60.65 60.18 59.92 59.67 59.31 58.82 58.57 58.14 57.79 57.40 57.43 57.61 57.69 57.61 57.48 57.23 57.07 56.86 56.49 56.52 56.60 56.79 56.79 56.88 56.98 57.02 56.78
63.44 63.42 63.48 63.52 63.20 62.89 62.69 62.72 62.89 63.19 63.54 63.92 64.14 64.00 63.84 63.69 63.27 63.08 63.41 63.90 64.02 64.19 64.34 64.06 63.86 64.12 64.72 65.53 65.53 65.44 65.18 64.61 64.63 64.28 63.91 63.27 62.93 62.49 62.04 61.69 61.15 60.67 60.21 59.83 59.67 59.40 59.22 58.94 58.66 58.34 57.98 57.49 57.49 57.68 57.77 57.75 57.66 57.50 57.35 57.20 57.02 56.93 57.10 57.41 57.34 57.28 57.25 57.23 57.05
63.15 63.18 63.16 63.17 62.92 62.72 62.66 62.69 62.75 63.05 63.46 63.84 63.95 63.76 63.63 63.44 63.27 63.19 63.29 63.77 64.08 64.34 64.18 63.63 63.57 63.94 64.23 63.92 64.62 64.90 64.87 64.33 63.64 63.18 62.74 62.76 62.27 61.92 61.56 61.22 60.56 60.20 59.95 59.55 59.31 59.18 59.09 59.09 58.76 58.57 58.25 57.89 57.71 57.80 58.04 58.01 57.87 57.67 57.52 57.52 57.52 57.43 57.43 57.61 57.56 57.65 57.49 57.38 57.10
63.06 63.09 62.99 62.88 62.74 62.72 62.64 62.69 62.81 63.13 63.39 63.73 63.63 63.53 63.28 63.27 63.23 62.94 62.62 62.91 63.78 63.93 63.80 63.23 63.29 63.26 63.01 62.18 63.06 63.53 63.79 63.87 62.93 62.45 62.18 62.29 62.18 61.90 61.36 60.91 60.39 60.21 60.04 59.56 59.22 59.09 59.09 59.02 58.91 58.76 58.57 58.34 58.07 58.07 58.12 58.32 58.19 58.04 57.89 57.80 57.79 57.97 57.88 57.41 57.71 57.90 57.76 57.58 57.29
62.81 62.90 62.88 62.83 62.72 62.81 62.83 62.79 62.75 62.96 63.32 63.42 63.31 63.20 63.10 63.30 63.21 62.94 62.81 62.70 63.57 63.59 63.23 62.69 62.81 62.80 62.63 62.09 62.15 62.08 62.22 63.11 62.54 62.40 62.22 62.23 62.32 61.99 61.49 61.15 60.86 60.56 60.30 59.65 59.30 59.12 59.03 59.04 59.04 58.85 58.67 58.48 58.39 58.30 58.40 58.41 58.37 58.41 58.40 58.40 58.34 58.32 58.23 58.03 58.25 58.23 58.17 57.83 57.52
62.80 62.80 62.75 62.64 62.78 62.83 62.74 62.45 62.59 62.96 63.24 63.18 63.13 63.14 63.16 63.25 63.22 63.22 63.17 63.16 63.13 63.04 62.86 62.13 62.38 62.46 62.41 61.82 61.88 61.19 60.85 62.06 62.31 62.40 62.38 62.36 62.17 61.85 61.34 61.04 60.92 60.76 60.47 59.83 59.64 59.50 59.41 59.28 59.19 58.83 58.58 58.49 58.40 58.41 58.32 58.37 58.48 58.46 58.64 58.64 58.57 58.57 58.67 58.67 58.66 58.50 58.45 58.11 57.84
62.78 62.81 62.81 62.78 62.94 62.93 62.73 62.52 62.78 63.06 63.27 63.33 63.24 63.16 63.18 63.26 63.10 63.01 62.90 62.75 62.64 62.64 62.45 61.93 62.19 62.04 61.70 61.41 61.75 61.44 61.05 61.04 62.02 62.27 62.40 62.49 62.16 61.63 61.23 60.93 60.72 60.51 60.33 59.80 59.81 59.70 59.57 59.31 59.31 58.95 58.60 58.30 58.32 58.19 58.30 58.35 58.35 58.48 58.57 58.66 58.73 58.82 58.77 58.86 58.76 58.66 58.50 58.35 58.30
62.94 62.99 63.07 63.06 63.11 62.94 62.89 62.93 62.88 62.94 63.02 63.21 63.33 63.43 63.48 63.37 63.11 62.91 62.71 62.37 62.30 62.25 62.23 62.01 62.19 61.93 61.64 61.34 61.62 61.59 61.35 60.65 61.70 62.11 62.29 62.27 61.86 61.56 61.44 61.12 60.92 60.62 60.27 59.87 59.74 59.71 59.61 59.40 59.25 59.08 58.68 58.39 58.22 58.23 58.30 58.27 58.27 58.26 58.35 58.35 58.66 58.82 58.86 58.95 58.86 58.86 58.67 58.57 58.52
62.97 63.02 63.04 63.01 62.97 62.98 62.93 62.74 62.64 62.54 62.58 62.98 63.29 63.43 63.45 63.28 62.93 62.69 62.39 62.13 61.94 61.99 62.18 62.10 62.28 62.18 61.93 61.59 61.50 61.52 61.26 60.76 61.58 61.81 61.79 61.84 61.49 61.38 61.29 61.34 61.31 60.97 60.58 60.09 59.96 59.78 59.68 59.50 59.31 59.13 58.96 58.58 58.49 58.41 58.30 58.18 58.27 58.17 58.12 58.26 58.48 58.55 58.77 58.86 58.91 58.93 58.93 58.84 58.59
62.83 62.89 62.89 62.96 63.13 62.60 62.11 62.14 62.31 62.25 62.33 62.72 63.02 63.16 63.09 62.81 62.39 62.08 61.84 61.73 61.45 61.68 62.14 62.36 62.58 62.46 62.30 61.88 61.88 61.79 61.44 61.03 61.10 61.05 61.19 61.38 61.40 61.34 61.46 61.55 61.28 60.91 60.63 60.57 60.42 60.20 59.91 59.67 59.39 59.28 59.19 58.95 58.75 58.67 58.55 58.57 58.17 58.17 58.12 58.12 58.21 58.19 58.37 58.55 58.75 58.89 58.90 58.90 58.80
62.74 62.67 62.71 62.93 63.12 62.74 62.31 62.22 62.06 61.96 61.96 62.30 62.54 62.65 62.47 62.19 61.76 61.78 61.72 61.62 61.43 61.53 61.87 62.31 62.57 62.63 62.46 61.84 61.79 61.54 61.36 60.91 60.39 60.45 60.76 61.24 61.27 61.25 61.46 61.34 60.99 60.72 60.53 60.62 59.67 58.91 58.71 58.77 59.43 59.46 59.18 59.10 58.95 58.86 58.82 58.68 58.55 58.37 58.19 58.01 57.93 57.93 58.12 58.30 58.48 58.62 58.72 58.68 58.63
62.56 62.43 62.47 62.83 62.82 62.70 62.41 62.15 61.84 61.85 61.84 61.95 62.29 62.26 62.08 61.46 61.38 61.39 61.34 61.28 61.24 61.36 61.60 62.01 62.52 62.80 62.73 61.76 61.51 61.53 61.16 60.48 60.09 60.08 60.45 61.12 61.27 61.36 61.28 61.08 60.70 60.52 60.12 59.12 53.48 51.23 51.41 53.58 56.60 58.52 59.40 59.07 59.02 58.93 58.82 58.73 58.68 58.59 58.31 58.05 57.75 57.67 57.63 57.81 58.08 58.21 58.35 58.45 58.54
62.39 62.35 62.42 62.56 62.49 62.45 62.25 62.12 61.81 61.81 61.88 61.96 62.05 61.79 61.50 61.20 61.27 61.25 61.00 61.03 61.11 61.24 61.60 61.87 62.30 61.87 61.37 61.68 61.49 61.23 60.82 60.24 60.30 60.55 60.85 61.20 61.20 61.09 60.92 60.51 60.30 60.32 58.89 54.58 48.19 46.11 46.74 48.28 50.19 53.03 56.45 59.71 59.07 58.71 58.44 58.53 58.64 58.49 58.40 58.22 57.84 57.58 57.55 57.42 57.60 57.91 58.08 58.17 58.35
62.06 62.14 62.26 62.24 62.13 62.25 62.21 62.30 62.15 62.03 61.98 62.03 61.93 61.58 61.13 61.21 61.26 61.10 60.90 60.91 61.20 61.33 61.52 61.85 62.02 60.82 59.99 61.53 61.08 60.73 60.57 60.64 60.89 61.03 61.22 61.42 60.93 60.63 60.66 60.33 60.25 60.23 57.59 49.55 44.93 43.85 44.75 45.93 46.47 48.56 52.67 59.21 59.13 58.77 58.50 58.45 58.46 58.50 58.41 58.14 57.93 57.85 57.63 57.46 57.46 57.46 57.60 57.91 58.17
61.85 62.06 62.22 62.01 62.12 62.22 62.47 62.37 62.15 62.04 61.90 61.78 61.72 61.36 61.11 60.89 60.85 60.83 60.90 60.90 61.19 61.43 61.61 61.79 61.42 61.10 60.90 61.26 60.99 60.76 60.83 61.07 61.28 61.25 61.29 61.31 61.16 60.89 60.55 60.26 60.66 58.63 53.71 45.38 43.39 43.21 44.03 44.93 45.20 46.20 48.83 53.66 58.25 59.32 58.86 58.63 58.26 58.17 58.17 58.18 58.08 57.99 57.90 57.81 57.81 57.73 57.73 57.82 58.00
61.73 61.93 61.90 61.73 61.88 62.11 62.27 62.09 61.97 61.79 61.62 61.46 61.43 61.07 60.84 60.68 60.57 60.56 60.56 60.85 61.12 61.37 61.50 61.80 61.27 61.05 60.94 60.99 61.17 61.34 61.46 61.46 61.46 61.28 61.19 61.28 60.70 60.53 60.24 60.18 60.57 56.35 49.55 41.49 42.58 43.39 44.03 44.39 44.39 44.66 46.02 49.10 56.12 58.76 58.96 58.60 58.15 57.97 57.88 57.88 57.87 57.78 57.73 57.73 57.96 57.91 57.81 57.81 57.91
61.84 61.68 61.51 61.17 61.39 61.58 61.64 61.68 61.60 61.52 61.30 61.11 60.88 60.50 60.25 60.26 60.22 60.32 60.30 60.52 60.82 61.12 61.33 61.62 61.31 60.78 60.59 60.83 61.28 61.43 61.52 61.52 61.43 61.25 60.98 60.50 60.18 60.07 59.82 59.26 60.24 56.77 49.77 40.49 42.58 43.66 44.03 44.30 44.03 44.03 44.57 46.20 52.77 57.05 59.07 58.78 58.95 58.95 59.04 59.22 59.35 59.25 59.02 58.71 58.36 58.27 58.17 58.12 57.91
61.81 61.65 61.31 60.84 60.69 60.77 60.90 61.14 61.00 60.98 60.90 60.60 60.30 60.08 59.80 59.65 59.72 59.95 60.22 60.52 60.69 60.50 60.47 60.90 60.69 60.45 60.45 61.01 61.27 61.36 61.45 61.56 61.36 61.13 60.75 60.41 59.29 59.38 59.87 60.15 60.48 57.42 50.82 39.94 42.58 43.76 44.12 44.12 43.57 43.12 43.12 44.03 50.46 55.79 58.42 56.88 55.39 53.73 52.02 50.31 49.14 48.96 49.18 49.82 50.54 52.62 54.64 55.26 57.25
61.85 61.63 61.22 60.75 60.47 60.39 60.35 60.47 60.49 60.50 60.49 60.28 60.16 59.83 59.66 59.56 59.96 60.30 60.58 60.41 60.25 60.20 60.13 60.26 60.28 60.22 60.25 60.64 60.96 61.09 61.09 61.13 61.02 60.78 60.53 60.34 60.13 60.18 60.29 60.48 60.53 56.07 48.36 39.28 41.85 42.85 42.94 42.94 42.58 42.31 42.12 42.22 46.65 52.04 54.33 49.37 47.11 45.39 44.13 43.41 43.41 43.77 44.09 44.41 44.45 44.67 45.12 46.38 50.09
61.48 61.43 61.14 60.81 60.58 60.33 60.22 60.25 60.30 60.33 60.30 60.39 60.25 59.99 59.75 59.70 60.42 60.47 60.32 59.98 60.08 60.11 60.07 59.91 60.04 60.09 60.11 60.33 60.51 60.78 60.78 60.62 60.34 59.64 59.16 59.45 60.36 60.46 60.09 59.33 57.76 50.04 41.68 38.55 40.36 41.49 42.22 42.67 42.31 41.76 41.40 41.31 44.75 46.57 47.15 46.70 45.80 44.72 43.63 42.82 42.37 42.19 42.20 42.38 42.91 43.72 44.54 44.99 45.98
60.94 60.94 60.80 60.86 60.67 60.58 60.49 60.51 60.57 60.57 60.52 60.42 60.30 60.16 59.79 59.72 59.96 59.78 59.52 59.45 59.85 60.06 60.23 60.27 60.33 60.29 60.08 60.21 60.29 60.08 59.66 59.09 59.78 60.13 60.28 60.44 59.78 58.22 56.25 53.97 50.72 44.08 38.64 38.95 40.13 40.68 40.77 40.81 40.72 40.81 41.04 41.31 44.17 45.44 45.31 44.41 43.37 42.38 41.38 40.75 40.40 40.37 40.33 40.42 40.69 41.50 42.67 44.28 45.98
60.56 60.47 60.50 60.64 60.80 60.95 61.06 61.00 60.94 60.82 60.77 60.52 60.33 60.08 59.81 59.81 59.63 59.41 59.11 58.74 58.88 59.74 60.44 60.09 59.39 58.49 57.84 57.18 57.54 57.19 56.80 57.04 58.00 58.66 58.88 58.45 55.47 52.39 49.73 48.46 46.30 41.59 38.01 39.14 40.04 40.18 40.01 39.97 40.06 40.25 40.78 41.27 43.00 43.46 42.88 41.80 40.81 39.95 39.23 38.69 38.21 38.07 38.18 38.31 38.60 39.48 40.86 42.52 44.00
60.47 60.33 60.27 60.39 60.77 61.21 61.39 61.23 61.06 60.83 60.60 60.41 60.16 59.92 59.71 59.76 59.73 59.57 59.09 58.11 58.40 58.60 57.90 55.82 52.92 50.80 49.27 48.10 47.65 47.15 47.38 48.78 50.04 51.44 52.53 52.57 51.12 49.86 48.24 46.02 43.77 40.64 38.37 38.55 39.19 39.60 39.61 39.57 39.57 39.93 40.57 41.83 42.38 42.02 41.17 40.00 38.96 38.20 37.58 36.95 36.35 36.26 36.31 36.40 36.62 37.33 38.40 40.02 41.57
60.75 60.49 60.32 60.33 60.60 60.89 61.08 60.90 60.64 60.16 59.80 59.90 59.71 59.70 59.72 59.73 59.81 59.76 59.18 57.66 55.95 53.55 51.39 50.49 49.77 48.69 47.60 46.52 45.71 45.26 45.26 46.03 46.21 46.30 46.57 47.24 47.87 47.38 45.85 44.00 42.50 40.28 38.37 37.84 38.43 38.89 39.21 39.22 39.41 40.04 40.99 42.16 41.80 40.99 39.91 38.83 37.61 36.94 36.32 35.78 35.41 35.15 35.15 35.05 34.96 35.18 35.72 36.62 38.11
61.11 60.66 60.35 60.08 60.26 60.42 60.61 60.49 59.93 59.39 59.16 59.30 59.76 59.85 59.90 60.06 60.03 58.89 56.69 53.29 51.88 50.35 48.95 48.14 47.06 46.07 45.08 44.09 43.10 42.47 42.34 42.97 43.42 43.78 44.23 44.36 44.81 44.68 43.83 42.07 40.93 39.47 38.10 37.11 37.62 38.17 38.67 39.04 39.28 39.96 40.96 42.00 41.28 40.38 39.07 37.85 36.67 35.77 35.05 34.51 34.33 34.21 34.12 34.07 33.80 33.61 33.35 33.51 34.19
60.99 60.77 60.43 59.88 59.77 59.80 59.77 59.67 59.19 58.89 58.91 59.17 59.79 59.98 59.74 58.89 57.26 54.93 52.47 49.90 49.58 48.41 46.84 45.44 44.45 43.55 42.70 41.85 40.81 39.92 39.38 39.47 39.87 40.32 40.90 41.30 41.30 41.17 40.95 40.28 39.21 38.16 37.20 36.45 36.90 37.45 38.08 38.59 38.83 39.25 39.85 40.66 40.59 39.78 38.48 37.08 35.80 34.93 34.21 33.62 33.08 32.96 32.88 32.96 32.69 32.27 31.97 31.71 32.01
60.95 60.95 60.69 60.06 59.72 59.33 59.19 58.91 58.77 58.95 59.43 60.04 59.62 58.41 56.43 53.82 51.30 49.99 49.22 48.05 47.02 45.67 44.19 42.97 42.11 41.39 40.64 39.48 38.81 37.90 37.13 36.86 37.09 37.36 37.49 37.93 37.67 37.63 37.81 38.12 37.42 36.72 36.00 35.79 36.24 36.86 37.50 38.13 38.33 38.66 39.16 39.87 39.85 39.19 37.95 36.79 35.34 34.20 33.47 32.88 32.34 31.89 31.68 31.61 31.68 31.34 30.91 30.76 30.77
60.94 60.84 60.58 60.21 59.82 59.55 59.33 58.95 59.36 59.85 59.63 58.45 56.33 53.85 51.58 49.77 49.04 48.32 47.38 45.99 44.51 43.43 42.25 41.12 40.36 39.65 38.81 37.69 36.98 36.09 35.27 34.70 34.75 34.95 35.00 35.00 35.00 35.13 35.38 35.78 35.54 35.16 34.89 34.91 35.41 36.04 36.71 37.43 37.97 38.38 38.75 39.05 39.29 38.89 37.87 36.62 35.10 33.76 32.77 32.25 31.78 31.10 30.52 30.23 30.29 30.10 29.85 29.92 29.67
MSLP
998.93 999.17 999.37 999.53 999.81 999.93 1000.05 1000.17 1000.41 1000.61 1000.81 1001.05 1001.25 1001.37 1001.49 1001.73 1001.93 1002.09 1002.37 1002.49 1002.53 1002.65 1002.93 1003.09 1003.29 1003.41 1003.53 1003.81 1004.17 1004.49 1004.81 1005.05 1005.37 1005.61 1005.93 1006.17 1006.37 1006.61 1006.81 1007.05 1007.29 1007.61 1007.85 1008.09 1008.37 1008.61 1008.81 1008.97 1009.17 1009.37 1009.49 1009.61 1009.73 1009.93 1010.09 1010.25 1010.41 1010.61 1010.73 1010.93 1011.17 1011.37 1011.49 1011.61 1011.81 1011.93 1012.17 1012.37 1012.65
998.81 999.05 999.25 999.49 999.73 999.97 1000.05 1000.17 1000.37 1000.53 1000.73 1000.81 1000.97 1001.09 1001.25 1001.49 1001.69 1001.85 1002.05 1002.25 1002.37 1002.49 1002.73 1002.93 1003.17 1003.29 1003.49 1003.69 1003.97 1004.29 1004.61 1004.85 1005.17 1005.41 1005.73 1005.93 1006.17 1006.37 1006.61 1006.81 1007.05 1007.29 1007.53 1007.85 1008.09 1008.37 1008.61 1008.73 1008.93 1009.09 1009.29 1009.49 1009.61 1009.81 1009.93 1010.09 1010.25 1010.41 1010.61 1010.65 1010.93 1011.09 1011.29 1011.41 1011.53 1011.73 1011.97 1012.25 1012.53
998.65 998.85 999.17 999.49 999.73 999.93 999.97 1000.09 1000.29 1000.49 1000.61 1000.65 1000.85 1000.97 1001.09 1001.25 1001.37 1001.53 1001.73 1001.93 1002.05 1002.25 1002.49 1002.73 1002.93 1003.17 1003.41 1003.53 1003.81 1004.09 1004.41 1004.65 1004.97 1005.25 1005.53 1005.81 1005.97 1006.17 1006.37 1006.61 1006.81 1007.05 1007.37 1007.61 1007.93 1008.09 1008.25 1008.49 1008.73 1008.93 1009.09 1009.29 1009.49 1009.69 1009.81 1009.93 1010.17 1010.29 1010.41 1010.53 1010.73 1010.93 1011.09 1011.29 1011.41 1011.61 1011.85 1012.05 1012.37
998.61 998.81 999.05 999.29 999.53 999.73 999.85 999.97 1000.17 1000.37 1000.41 1000.53 1000.73 1000.85 1000.97 1001.09 1001.25 1001.37 1001.53 1001.69 1001.93 1002.09 1002.29 1002.49 1002.73 1002.97 1003.25 1003.49 1003.69 1003.93 1004.25 1004.53 1004.81 1005.09 1005.37 1005.53 1005.81 1006.05 1006.25 1006.37 1006.61 1006.85 1007.09 1007.37 1007.61 1007.85 1008.05 1008.25 1008.49 1008.65 1008.85 1009.09 1009.29 1009.49 1009.61 1009.73 1009.97 1010.17 1010.29 1010.41 1010.53 1010.73 1010.93 1011.09 1011.29 1011.49 1011.69 1011.85 1012.09
998.49 998.65 998.85 999.17 999.41 999.61 999.73 999.85 1000.05 1000.17 1000.29 1000.41 1000.53 1000.73 1000.93 1001.05 1001.09 1001.25 1001.41 1001.61 1001.81 1001.93 1002.09 1002.37 1002.61 1002.81 1002.97 1003.29 1003.53 1003.81 1004.05 1004.37 1004.65 1004.93 1005.17 1005.41 1005.69 1005.85 1006.05 1006.29 1006.53 1006.73 1006.93 1007.09 1007.37 1007.69 1007.93 1008.05 1008.29 1008.49 1008.73 1008.93 1009.05 1009.17 1009.37 1009.53 1009.81 1009.93 1010.09 1010.29 1010.37 1010.49 1010.65 1010.85 1011.05 1011.25 1011.49 1011.73 1011.97
998.41 998.61 998.81 999.05 999.29 999.53 999.69 999.81 999.97 1000.09 1000.17 1000.29 1000.41 1000.61 1000.81 1000.93 1001.05 1001.17 1001.37 1001.53 1001.69 1001.85 1002.05 1002.29 1002.49 1002.65 1002.85 1003.17 1003.41 1003.61 1003.85 1004.25 1004.53 1004.81 1004.97 1005.25 1005.41 1005.73 1005.97 1006.17 1006.37 1006.53 1006.81 1006.97 1007.25 1007.49 1007.73 1007.93 1008.17 1008.37 1008.53 1008.73 1008.85 1009.05 1009.25 1009.49 1009.61 1009.73 1009.93 1010.09 1010.17 1010.37 1010.53 1010.65 1010.85 1011.05 1011.29 1011.53 1011.81
998.25 998.49 998.73 998.97 999.17 999.41 999.61 999.73 999.85 999.97 1000.05 1000.17 1000.29 1000.49 1000.61 1000.73 1000.93 1001.05 1001.25 1001.41 1001.53 1001.81 1002.05 1002.29 1002.49 1002.61 1002.81 1002.97 1003.17 1003.49 1003.73 1004.09 1004.37 1004.61 1004.81 1004.97 1005.17 1005.49 1005.73 1006.05 1006.25 1006.41 1006.65 1006.85 1007.05 1007.29 1007.53 1007.81 1007.97 1008.17 1008.41 1008.61 1008.73 1008.93 1009.09 1009.37 1009.49 1009.61 1009.73 1009.85 1009.97 1010.17 1010.41 1010.53 1010.73 1010.93 1011.17 1011.37 1011.53
998.17 998.41 998.65 998.93 999.09 999.29 999.49 999.69 999.81 999.93 999.97 1000.05 1000.17 1000.37 1000.49 1000.65 1000.81 1000.97 1001.17 1001.41 1001.53 1001.81 1002.05 1002.37 1002.41 1002.53 1002.65 1002.85 1002.97 1003.25 1003.53 1003.93 1004.25 1004.49 1004.65 1004.85 1005.05 1005.29 1005.53 1005.81 1006.05 1006.29 1006.53 1006.73 1006.93 1007.17 1007.41 1007.69 1007.85 1007.97 1008.17 1008.37 1008.61 1008.81 1008.93 1009.09 1009.29 1009.49 1009.61 1009.73 1009.85 1010.05 1010.25 1010.41 1010.61 1010.81 1010.93 1011.05 1011.29
998.17 998.37 998.61 998.81 998.97 999.17 999.37 999.49 999.69 999.81 999.93 999.97 999.97 1000.17 1000.41 1000.61 1000.73 1000.93 1001.09 1001.37 1001.53 1001.81 1002.05 1002.37 1002.41 1002.53 1002.61 1002.73 1002.85 1003.05 1003.29 1003.69 1004.05 1004.29 1004.49 1004.61 1004.81 1005.05 1005.37 1005.61 1005.85 1006.09 1006.41 1006.53 1006.81 1006.97 1007.25 1007.49 1007.69 1007.81 1007.93 1008.09 1008.37 1008.53 1008.73 1008.97 1009.17 1009.29 1009.41 1009.61 1009.73 1009.93 1010.09 1010.25 1010.41 1010.53 1010.65 1010.81 1010.97
998.09 998.29 998.53 998.73 998.93 999.09 999.25 999.41 999.61 999.73 999.81 999.93 999.97 1000.17 1000.37 1000.53 1000.65 1000.81 1001.05 1001.29 1001.53 1001.81 1002.05 1002.29 1002.37 1002.49 1002.61 1002.73 1002.85 1002.97 1003.17 1003.41 1003.81 1004.09 1004.29 1004.53 1004.73 1004.93 1005.09 1005.37 1005.61 1005.93 1006.17 1006.37 1006.61 1006.85 1007.09 1007.29 1007.49 1007.61 1007.73 1007.93 1008.09 1008.37 1008.61 1008.81 1008.97 1009.17 1009.29 1009.41 1009.61 1009.73 1009.93 1010.05 1010.25 1010.37 1010.49 1010.53 1010.73
997.97 998.25 998.41 998.61 998.81 998.97 999.17 999.37 999.49 999.61 999.73 999.93 999.97 1000.09 1000.29 1000.49 1000.61 1000.73 1000.97 1001.25 1001.53 1001.81 1002.05 1002.17 1002.29 1002.41 1002.61 1002.73 1002.85 1002.97 1003.17 1003.37 1003.69 1003.93 1004.25 1004.41 1004.61 1004.73 1004.93 1005.09 1005.37 1005.61 1005.93 1006.17 1006.41 1006.65 1006.97 1007.17 1007.29 1007.41 1007.61 1007.73 1007.93 1008.17 1008.37 1008.61 1008.81 1008.97 1009.17 1009.29 1009.41 1009.53 1009.69 1009.93 1010.05 1010.25 1010.37 1010.41 1010.61
997.93 998.17 998.37 998.49 998.65 998.93 999.05 999.25 999.41 999.53 999.69 999.85 999.93 1000.05 1000.25 1000.37 1000.49 1000.65 1000.93 1001.17 1001.49 1001.81 1001.97 1002.05 1002.25 1002.41 1002.53 1002.73 1002.81 1002.97 1003.17 1003.37 1003.53 1003.81 1004.05 1004.29 1004.49 1004.65 1004.85 1005.05 1005.17 1005.41 1005.73 1005.97 1006.29 1006.53 1006.73 1006.97 1007.09 1007.25 1007.37 1007.61 1007.81 1007.97 1008.17 1008.41 1008.61 1008.81 1008.93 1009.09 1009.25 1009.37 1009.53 1009.73 1009.85 1010.05 1010.17 1010.29 1010.49
997.93 998.09 998.25 998.41 998.65 998.85 998.97 999.09 999.37 999.49 999.61 999.73 999.85 999.97 1000.09 1000.25 1000.41 1000.61 1000.85 1001.17 1001.49 1001.69 1001.81 1001.93 1002.17 1002.37 1002.49 1002.65 1002.81 1002.93 1003.05 1003.25 1003.41 1003.69 1003.93 1004.17 1004.37 1004.53 1004.73 1004.93 1005.09 1005.29 1005.53 1005.81 1006.05 1006.29 1006.53 1006.73 1006.85 1006.97 1007.25 1007.41 1007.69 1007.81 1007.93 1008.09 1008.37 1008.49 1008.61 1008.81 1008.97 1009.17 1009.37 1009.53 1009.73 1009.85 1009.97 1010.17 1010.37
997.85 998.05 998.17 998.37 998.53 998.73 998.93 999.05 999.25 999.41 999.53 999.61 999.69 999.85 999.97 1000.17 1000.41 1000.61 1000.85 1001.05 1001.37 1001.49 1001.69 1001.85 1002.09 1002.25 1002.37 1002.53 1002.73 1002.85 1002.97 1003.17 1003.37 1003.53 1003.73 1003.97 1004.25 1004.41 1004.61 1004.81 1004.97 1005.17 1005.41 1005.69 1005.93 1006.09 1006.29 1006.41 1006.61 1006.81 1006.97 1007.17 1007.37 1007.53 1007.69 1007.85 1008.05 1008.25 1008.37 1008.49 1008.73 1008.97 1009.17 1009.37 1009.61 1009.81 1009.93 1010.05 1010.17
997.81 997.97 998.09 998.29 998.49 998.65 998.85 998.97 999.17 999.29 999.41 999.49 999.61 999.73 999.93 1000.09 1000.37 1000.53 1000.81 1000.97 1001.17 1001.29 1001.49 1001.73 1001.97 1002.17 1002.29 1002.49 1002.61 1002.81 1002.93 1003.09 1003.29 1003.41 1003.69 1003.81 1004.05 1004.29 1004.49 1004.65 1004.85 1005.05 1005.29 1005.53 1005.73 1005.93 1006.05 1006.17 1006.37 1006.61 1006.81 1006.93 1007.05 1007.25 1007.49 1007.73 1007.85 1007.97 1008.09 1008.25 1008.49 1008.73 1008.97 1009.25 1009.49 1009.61 1009.81 1009.93 1009.97
997.69 997.85 998.05 998.25 998.37 998.53 998.73 998.93 999.05 999.25 999.29 999.37 999.49 999.69 999.85 1000.05 1000.29 1000.49 1000.65 1000.85 1000.97 1001.17 1001.37 1001.61 1001.85 1002.05 1002.25 1002.49 1002.61 1002.73 1002.93 1003.05 1003.25 1003.41 1003.69 1003.81 1003.97 1004.17 1004.37 1004.53 1004.73 1004.93 1005.09 1005.37 1005.53 1005.73 1005.85 1006.05 1006.25 1006.41 1006.61 1006.65 1006.81 1006.97 1007.25 1007.49 1007.61 1007.73 1007.85 1008.09 1008.37 1008.53 1008.81 1008.97 1009.25 1009.41 1009.53 1009.69 1009.81
997.53 997.73 997.93 998.09 998.25 998.49 998.65 998.81 998.93 999.05 999.17 999.29 999.41 999.61 999.81 999.97 1000.25 1000.41 1000.61 1000.81 1000.97 1001.09 1001.29 1001.53 1001.81 1001.97 1002.25 1002.49 1002.65 1002.81 1002.85 1003.05 1003.25 1003.41 1003.61 1003.73 1003.85 1004.05 1004.25 1004.41 1004.61 1004.81 1004.97 1005.25 1005.41 1005.61 1005.81 1005.93 1006.17 1006.29 1006.41 1006.53 1006.65 1006.85 1006.97 1007.17 1007.37 1007.53 1007.73 1007.93 1008.25 1008.41 1008.61 1008.81 1009.05 1009.17 1009.37 1009.49 1009.61
997.41 997.61 997.81 997.97 998.09 998.37 998.53 998.65 998.73 998.85 998.97 999.17 999.37 999.53 999.73 999.97 1000.17 1000.37 1000.53 1000.73 1000.85 1001.05 1001.29 1001.49 1001.73 1001.93 1002.17 1002.41 1002.65 1002.81 1002.85 1002.97 1003.17 1003.37 1003.49 1003.61 1003.73 1003.93 1004.09 1004.37 1004.49 1004.73 1004.93 1005.09 1005.29 1005.49 1005.69 1005.85 1006.05 1006.25 1006.37 1006.49 1006.65 1006.73 1006.85 1007.05 1007.25 1007.41 1007.61 1007.81 1008.05 1008.25 1008.41 1008.61 1008.81 1008.97 1009.17 1009.29 1009.41
997.29 997.41 997.61 997.85 997.97 998.17 998.41 998.53 998.65 998.73 998.85 999.05 999.29 999.49 999.73 999.93 1000.09 1000.29 1000.41 1000.61 1000.81 1000.97 1001.17 1001.41 1001.69 1001.85 1002.09 1002.37 1002.53 1002.73 1002.85 1002.93 1003.05 1003.25 1003.37 1003.49 1003.61 1003.73 1003.93 1004.17 1004.37 1004.53 1004.81 1004.97 1005.17 1005.37 1005.53 1005.73 1005.93 1006.09 1006.29 1006.41 1006.61 1006.73 1006.93 1007.05 1007.17 1007.29 1007.49 1007.69 1007.85 1008.05 1008.29 1008.41 1008.53 1008.73 1008.93 1009.05 1009.25
997.09 997.29 997.49 997.73 997.85 998.05 998.25 998.41 998.53 998.65 998.81 999.05 999.29 999.49 999.61 999.85 1000.05 1000.25 1000.41 1000.53 1000.65 1000.85 1001.09 1001.37 1001.61 1001.81 1001.97 1002.25 1002.49 1002.61 1002.73 1002.85 1002.97 1003.17 1003.29 1003.41 1003.49 1003.69 1003.81 1003.97 1004.17 1004.37 1004.61 1004.85 1005.09 1005.29 1005.49 1005.69 1005.81 1005.97 1006.17 1006.37 1006.53 1006.73 1006.85 1007.05 1007.17 1007.29 1007.41 1007.53 1007.73 1007.85 1008.05 1008.25 1008.41 1008.53 1008.73 1008.93 1009.05
996.97 997.09 997.37 997.53 997.73 997.93 998.09 998.29 998.41 998.61 998.81 998.93 999.17 999.37 999.53 999.81 999.97 1000.17 1000.29 1000.41 1000.61 1000.81 1001.05 1001.29 1001.49 1001.69 1001.93 1002.09 1002.29 1002.49 1002.61 1002.81 1002.93 1003.05 1003.25 1003.29 1003.41 1003.61 1003.73 1003.85 1004.05 1004.25 1004.49 1004.73 1004.93 1005.17 1005.37 1005.53 1005.69 1005.85 1006.05 1006.17 1006.37 1006.61 1006.81 1006.97 1007.09 1007.25 1007.37 1007.49 1007.53 1007.69 1007.85 1008.09 1008.25 1008.41 1008.53 1008.73 1008.93
996.85 996.97 997.25 997.49 997.69 997.85 998.05 998.17 998.41 998.61 998.81 998.93 999.05 999.25 999.41 999.73 999.93 1000.05 1000.25 1000.41 1000.61 1000.85 1001.05 1001.25 1001.41 1001.53 1001.73 1001.93 1002.09 1002.29 1002.49 1002.61 1002.81 1002.93 1003.09 1003.25 1003.37 1003.53 1003.69 1003.81 1003.97 1004.17 1004.29 1004.53 1004.73 1004.97 1005.25 1005.49 1005.61 1005.73 1005.93 1006.09 1006.29 1006.41 1006.61 1006.81 1006.93 1007.09 1007.25 1007.29 1007.41 1007.53 1007.69 1007.93 1008.05 1008.17 1008.37 1008.53 1008.65
996.65 996.93 997.17 997.41 997.53 997.81 997.97 998.09 998.37 998.61 998.81 998.93 998.97 999.17 999.29 999.53 999.73 999.97 1000.17 1000.41 1000.65 1000.93 1001.09 1001.25 1001.29 1001.41 1001.61 1001.81 1001.93 1002.09 1002.29 1002.53 1002.73 1002.85 1003.05 1003.25 1003.37 1003.49 1003.69 1003.81 1003.93 1004.09 1004.25 1004.37 1004.53 1004.81 1005.05 1005.29 1005.49 1005.61 1005.81 1005.97 1006.09 1006.25 1006.41 1006.61 1006.73 1006.93 1007.05 1007.17 1007.29 1007.49 1007.61 1007.73 1007.93 1008.05 1008.17 1008.37 1008.49
996.61 996.85 997.09 997.37 997.49 997.69 997.93 998.09 998.37 998.61 998.81 998.85 998.93 999.05 999.25 999.41 999.69 999.97 1000.25 1000.53 1000.65 1000.85 1000.97 1001.09 1001.25 1001.37 1001.53 1001.73 1001.93 1002.09 1002.29 1002.49 1002.65 1002.85 1003.05 1003.17 1003.29 1003.41 1003.61 1003.73 1003.85 1003.97 1004.17 1004.29 1004.41 1004.61 1004.85 1005.09 1005.29 1005.41 1005.61 1005.73 1005.93 1006.09 1006.25 1006.37 1006.53 1006.73 1006.93 1006.97 1007.17 1007.37 1007.49 1007.61 1007.73 1007.85 1007.97 1008.09 1008.29
996.61 996.85 997.05 997.29 997.41 997.61 997.85 998.05 998.29 998.53 998.73 998.81 998.93 999.05 999.17 999.41 999.73 999.97 1000.25 1000.49 1000.65 1000.81 1000.93 1001.05 1001.17 1001.29 1001.49 1001.73 1001.93 1002.09 1002.29 1002.41 1002.61 1002.81 1002.97 1003.17 1003.29 1003.41 1003.53 1003.73 1003.93 1004.05 1004.09 1004.29 1004.49 1004.65 1004.81 1004.97 1005.09 1005.29 1005.41 1005.61 1005.81 1005.97 1006.17 1006.29 1006.41 1006.61 1006.73 1006.85 1007.05 1007.25 1007.37 1007.49 1007.61 1007.69 1007.81 1007.93 1008.09
996.61 996.85 997.09 997.25 997.37 997.53 997.81 997.97 998.25 998.49 998.65 998.73 998.85 999.05 999.25 999.49 999.73 1000.05 1000.29 1000.49 1000.61 1000.73 1000.93 1001.05 1001.09 1001.29 1001.49 1001.73 1001.97 1002.09 1002.29 1002.49 1002.65 1002.81 1002.97 1003.09 1003.25 1003.41 1003.61 1003.73 1003.93 1004.05 1004.17 1004.37 1004.61 1004.73 1004.81 1004.97 1005.09 1005.25 1005.37 1005.49 1005.73 1005.93 1006.05 1006.17 1006.37 1006.53 1006.61 1006.73 1006.93 1007.09 1007.25 1007.37 1007.49 1007.53 1007.61 1007.73 1007.85
996.65 996.85 997.05 997.25 997.37 997.53 997.73 997.93 998.17 998.37 998.53 998.65 998.85 999.05 999.29 999.61 999.81 1000.05 1000.29 1000.41 1000.61 1000.73 1000.85 1000.97 1001.05 1001.25 1001.49 1001.69 1001.93 1002.09 1002.37 1002.53 1002.65 1002.81 1002.93 1003.05 1003.17 1003.37 1003.53 1003.73 1003.85 1003.97 1004.17 1004.41 1004.65 1004.81 1004.85 1004.97 1005.09 1005.25 1005.29 1005.41 1005.61 1005.81 1005.93 1006.05 1006.17 1006.37 1006.53 1006.61 1006.81 1006.97 1007.09 1007.17 1007.29 1007.37 1007.49 1007.61 1007.69
996.65 996.85 997.05 997.29 997.37 997.49 997.61 997.81 998.05 998.25 998.49 998.65 998.81 999.05 999.37 999.69 999.85 1000.05 1000.25 1000.37 1000.53 1000.65 1000.81 1000.93 1001.09 1001.37 1001.61 1001.81 1001.97 1002.17 1002.37 1002.53 1002.65 1002.81 1002.93 1003.05 1003.17 1003.29 1003.49 1003.69 1003.81 1003.97 1004.17 1004.49 1004.61 1004.73 1004.85 1004.97 1005.09 1005.25 1005.29 1005.41 1005.49 1005.69 1005.85 1005.97 1006.09 1006.25 1006.37 1006.49 1006.61 1006.73 1006.93 1007.05 1007.09 1007.25 1007.29 1007.41 1007.53
996.65 996.85 997.05 997.29 997.37 997.41 997.53 997.73 997.97 998.17 998.37 998.61 998.81 999.09 999.41 999.73 999.93 1000.05 1000.25 1000.41 1000.53 1000.65 1000.81 1000.97 1001.17 1001.49 1001.73 1001.93 1002.05 1002.17 1002.37 1002.53 1002.61 1002.73 1002.93 1003.05 1003.17 1003.37 1003.53 1003.73 1003.85 1004.05 1004.29 1004.53 1004.61 1004.73 1004.85 1005.05 1005.09 1005.25 1005.29 1005.41 1005.49 1005.61 1005.81 1005.97 1006.09 1006.25 1006.37 1006.49 1006.61 1006.73 1006.85 1006.93 1006.97 1007.05 1007.09 1007.29 1007.41
996.65 996.93 997.17 997.29 997.37 997.49 997.53 997.69 997.85 998.09 998.37 998.65 998.93 999.25 999.53 999.81 999.97 1000.17 1000.37 1000.49 1000.53 1000.65 1000.85 1001.09 1001.37 1001.53 1001.81 1001.93 1002.05 1002.17 1002.37 1002.49 1002.61 1002.73 1002.85 1002.97 1003.25 1003.37 1003.53 1003.73 1003.81 1003.97 1004.25 1004.53 1004.61 1004.73 1004.81 1004.97 1005.09 1005.25 1005.37 1005.49 1005.49 1005.61 1005.81 1005.93 1006.09 1006.25 1006.29 1006.41 1006.53 1006.65 1006.73 1006.85 1006.97 1006.97 1007.09 1007.25 1007.29
996.73 996.93 997.17 997.29 997.41 997.53 997.61 997.69 997.85 998.09 998.41 998.81 999.09 999.37 999.61 999.81 999.97 1000.17 1000.37 1000.49 1000.61 1000.81 1000.97 1001.17 1001.37 1001.53 1001.73 1001.93 1002.09 1002.25 1002.37 1002.49 1002.61 1002.73 1002.93 1003.05 1003.29 1003.41 1003.49 1003.69 1003.73 1003.85 1004.17 1004.49 1004.53 1004.65 1004.81 1004.97 1005.09 1005.29 1005.49 1005.61 1005.69 1005.73 1005.93 1006.09 1006.37 1006.65 1006.93 1007.17 1007.37 1007.49 1007.53 1007.53 1007.69 1007.61 1007.41 1007.41 1007.37
996.73 996.93 997.09 997.29 997.41 997.61 997.69 997.81 998.05 998.25 998.53 998.93 999.17 999.41 999.61 999.85 1000.05 1000.17 1000.37 1000.53 1000.73 1000.93 1001.17 1001.37 1001.49 1001.61 1001.81 1001.97 1002.09 1002.25 1002.41 1002.53 1002.65 1002.81 1002.97 1003.09 1003.25 1003.37 1003.41 1003.61 1003.73 1003.97 1004.29 1004.53 1004.61 1004.65 1004.85 1005.09 1005.37 1005.61 1005.81 1005.93 1005.97 1006.05 1006.25 1006.81 1007.09 1007.41 1007.69 1007.85 1007.97 1008.05 1008.09 1008.17 1008.25 1008.29 1008.25 1008.17 1007.97
996.73 996.93 997.09 997.29 997.49 997.69 997.85 997.97 998.25 998.41 998.61 998.85 999.09 999.37 999.61 999.93 1000.09 1000.25 1000.41 1000.61 1000.81 1001.05 1001.29 1001.41 1001.53 1001.73 1001.85 1001.93 1002.09 1002.25 1002.41 1002.61 1002.73 1002.93 1003.05 1003.17 1003.25 1003.29 1003.49 1003.73 1004.09 1004.53 1004.81 1004.85 1004.93 1005.05 1005.25 1005.49 1005.69 1005.93 1006.05 1006.17 1006.41 1006.65 1006.93 1007.17 1007.41 1007.73 1007.97 1008.25 1008.41 1008.53 1008.61 1008.65 1008.65 1008.61 1008.61 1008.53 1008.53
996.81 996.93 997.05 997.25 997.37 997.61 997.85 998.09 998.29 998.49 998.65 998.85 999.05 999.37 999.61 999.93 1000.09 1000.29 1000.49 1000.65 1000.85 1001.09 1001.37 1001.53 1001.61 1001.73 1001.85 1001.97 1002.17 1002.37 1002.49 1002.65 1002.73 1002.85 1002.97 1003.17 1003.41 1003.69 1004.05 1004.49 1004.85 1005.09 1005.17 1005.05 1005.17 1005.37 1005.61 1005.81 1005.97 1006.09 1006.25 1006.49 1006.73 1007.05 1007.29 1007.53 1007.85 1008.17 1008.49 1008.65 1008.85 1008.97 1009.05 1009.05 1009.09 1009.17 1009.09 1009.05 1008.97
996.85 996.97 997.05 997.17 997.29 997.49 997.81 998.05 998.25 998.49 998.65 998.85 999.05 999.37 999.61 999.93 1000.17 1000.37 1000.61 1000.85 1001.05 1001.25 1001.41 1001.61 1001.85 1002.09 1002.37 1002.61 1002.65 1002.85 1003.09 1003.25 1003.25 1003.25 1003.29 1003.49 1003.97 1004.41 1004.81 1005.09 1005.37 1005.53 1005.53 1005.29 1005.37 1005.49 1005.73 1005.97 1006.17 1006.25 1006.41 1006.73 1007.05 1007.41 1007.81 1007.97 1008.37 1008.65 1008.93 1009.09 1009.29 1009.49 1009.53 1009.61 1009.69 1009.73 1009.69 1009.53 1009.41
996.85 996.97 997.05 997.17 997.29 997.41 997.69 997.93 998.17 998.41 998.65 998.85 999.09 999.37 999.69 999.97 1000.25 1000.41 1000.73 1000.97 1001.17 1001.41 1001.81 1002.25 1002.61 1002.93 1003.17 1003.41 1003.61 1003.85 1004.05 1004.17 1004.25 1004.25 1004.25 1004.37 1004.61 1004.85 1005.17 1005.61 1005.93 1006.09 1006.09 1005.97 1005.81 1005.81 1005.93 1006.05 1006.17 1006.29 1006.53 1006.93 1007.41 1007.81 1008.09 1008.49 1008.81 1009.09 1009.37 1009.53 1009.81 1009.97 1010.17 1010.17 1010.29 1010.37 1010.29 1010.17 1010.05
996.73 996.93 997.05 997.17 997.29 997.41 997.61 997.85 998.17 998.49 998.73 998.97 999.25 999.53 999.85 1000.09 1000.29 1000.49 1000.81 1001.17 1001.61 1002.09 1002.49 1002.81 1003.09 1003.37 1003.69 1003.93 1004.25 1004.49 1004.61 1004.73 1004.81 1004.93 1004.97 1005.05 1005.25 1005.41 1005.69 1006.09 1006.49 1006.73 1006.81 1006.81 1006.73 1006.61 1006.41 1006.29 1006.25 1006.37 1006.65 1007.17 1007.61 1008.05 1008.41 1008.85 1009.25 1009.53 1009.81 1009.97 1010.29 1010.49 1010.65 1010.81 1010.85 1010.93 1010.97 1010.93 1010.81
996.73 996.93 997.09 997.17 997.25 997.37 997.61 997.85 998.17 998.53 998.85 999.09 999.41 999.73 999.97 1000.17 1000.41 1000.73 1001.17 1001.73 1002.17 1002.53 1002.93 1003.25 1003.53 1003.85 1004.17 1004.49 1004.81 1005.05 1005.25 1005.37 1005.37 1005.49 1005.61 1005.81 1005.93 1006.05 1006.29 1006.65 1007.05 1007.25 1007.29 1007.29 1007.29 1007.29 1007.17 1007.05 1006.81 1006.65 1006.85 1007.29 1007.81 1008.25 1008.65 1009.09 1009.49 1009.85 1010.17 1010.49 1010.73 1010.93 1011.17 1011.37 1011.49 1011.61 1011.73 1011.73 1011.61
996.85 996.93 997.05 997.17 997.25 997.49 997.73 997.97 998.29 998.61 998.93 999.29 999.61 999.85 1000.09 1000.41 1000.93 1001.37 1001.81 1002.25 1002.61 1002.97 1003.37 1003.73 1004.09 1004.41 1004.73 1004.97 1005.29 1005.69 1005.93 1006.05 1006.17 1006.25 1006.37 1006.61 1006.81 1006.85 1006.97 1007.25 1007.61 1007.81 1007.81 1007.81 1007.69 1007.61 1007.61 1007.53 1007.49 1007.37 1007.37 1007.53 1007.97 1008.41 1008.85 1009.29 1009.73 1010.17 1010.49 1010.85 1011.17 1011.37 1011.61 1011.85 1011.97 1012.17 1012.37 1012.41 1012.41
996.85 996.97 997.09 997.25 997.37 997.61 997.85 998.17 998.41 998.81 999.09 999.41 999.81 1000.17 1000.61 1001.09 1001.61 1001.97 1002.29 1002.65 1003.09 1003.49 1003.93 1004.37 1004.73 1004.97 1005.17 1005.37 1005.73 1006.17 1006.53 1006.81 1006.93 1007.05 1007.25 1007.41 1007.53 1007.61 1007.69 1007.85 1008.09 1008.29 1008.29 1008.25 1008.17 1008.05 1008.05 1007.97 1007.97 1007.97 1007.97 1008.05 1008.37 1008.73 1009.09 1009.49 1009.97 1010.41 1010.81 1011.17 1011.49 1011.73 1012.05 1012.29 1012.49 1012.65 1012.85 1012.97 1013.05
996.85 996.97 997.17 997.37 997.53 997.73 997.97 998.29 998.61 998.93 999.29 999.73 1000.25 1000.73 1001.25 1001.61 1001.97 1002.37 1002.73 1003.17 1003.53 1004.05 1004.41 1004.81 1005.25 1005.49 1005.69 1005.93 1006.29 1006.73 1007.05 1007.29 1007.61 1007.85 1007.97 1008.09 1008.17 1008.25 1008.37 1008.49 1008.65 1008.81 1008.85 1008.81 1008.73 1008.61 1008.49 1008.41 1008.37 1008.37 1008.49 1008.53 1008.81 1009.09 1009.41 1009.69 1010.09 1010.65 1011.17 1011.53 1011.81 1012.09 1012.41 1012.65 1012.93 1013.09 1013.29 1013.53 1013.73
Wind_Speed
14 12 10 9 8 8 8 8 8 8 8 9 9 10 10 10 10 10 9 9 9 8 8 9 9 9 11 14 16 17 17 17 17 16 16 17 18 19 20 19 19 18 17 16 16 15 15 16 14 11 9 9 10 10 10 10 12 13 13 12 11 12 14 15 15 16 15 14 10
15 14 12 10 9 8 8 8 8 8 8 9 9 9 9 9 9 9 10 10 9 8 8 8 9 10 11 14 15 16 17 17 17 16 16 17 18 19 19 18 19 19 19 18 17 15 14 16 14 11 9 8 9 10 11 11 12 13 14 15 12 11 11 13 14 15 16 14 11
16 15 13 12 12 11 10 9 9 10 10 9 9 9 9 9 9 9 9 10 10 9 9 8 10 11 12 13 14 15 16 16 16 16 16 16 18 19 19 18 19 19 19 18 17 15 14 15 13 10 8 8 9 9 11 12 12 13 14 16 11 10 10 10 12 12 12 11 11
16 15 14 14 15 14 12 10 11 11 11 10 9 9 9 8 8 8 9 10 10 10 9 9 10 11 12 13 14 15 15 15 16 16 16 15 17 18 18 18 18 19 19 18 18 17 16 15 12 9 9 9 10 11 10 11 12 13 12 13 11 10 10 10 10 10 10 10 11
16 15 14 14 16 16 14 12 12 12 11 9 9 9 8 8 8 8 8 9 9 9 10 10 10 10 11 12 14 15 16 16 15 15 15 15 16 17 17 18 18 18 18 18 19 18 17 16 11 9 9 10 11 11 11 12 13 12 12 11 10 10 10 10 9 9 9 9 10
15 15 15 14 16 15 14 12 13 12 11 9 10 10 9 8 8 8 9 9 9 10 11 11 10 11 12 13 15 15 16 16 15 14 15 16 15 16 17 17 18 17 16 16 17 17 16 15 10 8 9 9 11 12 13 14 13 12 11 11 10 10 10 11 10 9 10 11 11
15 15 15 15 16 15 14 14 13 12 11 10 11 12 12 10 10 10 11 9 9 10 10 9 10 11 12 13 14 15 15 14 14 15 16 16 15 16 16 16 17 17 16 16 16 16 15 14 10 8 8 8 9 11 14 14 12 11 11 11 10 10 11 13 11 11 12 14 15
15 16 16 15 16 16 16 16 14 13 12 10 12 13 13 13 13 12 11 10 9 9 9 8 10 12 12 13 14 14 15 15 14 15 15 15 15 16 17 17 17 17 17 16 16 16 14 12 10 9 9 8 8 10 13 16 15 13 12 11 10 10 11 12 12 13 14 17 17
14 15 16 16 16 16 17 17 15 14 13 12 12 13 13 13 13 12 11 9 9 9 9 9 11 12 13 13 13 13 14 14 14 14 14 14 15 16 16 16 17 17 17 16 16 16 15 11 9 9 9 9 9 10 13 17 17 16 14 12 11 11 12 12 14 15 17 18 19
13 15 15 15 16 16 16 16 16 15 14 13 13 13 13 12 12 11 10 8 8 9 10 10 11 12 12 12 12 12 12 13 13 14 14 13 14 15 16 15 16 16 16 15 15 16 15 12 10 10 10 10 12 13 15 17 18 18 16 11 12 13 14 14 15 17 17 18 19
13 14 15 14 15 16 16 16 14 14 14 13 13 13 13 12 11 10 10 9 9 10 11 11 12 12 12 11 11 11 11 11 11 12 13 12 13 14 15 15 16 16 16 15 14 14 13 11 12 13 13 12 14 15 16 18 19 19 18 13 14 15 16 16 16 16 17 17 19
13 13 14 14 15 15 15 14 13 13 13 13 14 13 13 11 11 11 11 11 11 11 12 12 12 12 11 10 10 10 10 11 11 12 12 12 13 14 15 15 15 15 15 15 14 13 12 12 13 14 16 15 13 14 16 19 20 20 20 18 17 16 17 18 18 17 16 17 18
13 13 13 14 15 15 14 13 12 12 12 13 13 13 12 11 11 12 12 12 12 11 11 12 12 12 11 10 10 10 10 11 12 12 12 13 13 14 15 15 15 15 15 14 13 12 12 13 15 16 17 17 14 14 16 20 20 21 21 20 19 18 18 19 19 18 17 18 18
13 13 13 14 15 14 14 13 11 11 12 13 13 12 11 11 11 12 12 12 12 11 11 11 10 10 10 11 10 11 11 11 12 12 13 13 13 14 14 14 15 14 13 12 13 14 14 14 16 17 18 18 16 16 17 20 20 20 21 21 20 19 19 19 19 19 18 19 19
13 13 13 14 14 13 12 12 10 10 11 13 12 11 10 10 11 11 11 11 12 11 10 10 9 10 10 11 11 11 11 11 11 12 12 13 13 14 14 14 14 14 13 13 13 14 16 16 17 17 18 18 18 18 18 19 19 19 19 19 19 18 18 18 18 18 18 18 18
13 13 13 13 13 13 12 12 10 10 11 11 11 11 10 10 10 10 11 12 11 10 9 10 10 10 10 10 11 11 11 10 10 11 11 12 12 13 14 14 14 14 14 14 14 14 15 16 16 16 17 18 19 19 19 19 19 19 19 18 18 18 17 17 17 18 18 18 18
13 13 13 14 14 13 13 12 10 10 11 11 11 11 10 9 9 10 11 11 10 9 9 10 10 9 9 9 9 10 10 10 10 10 10 11 12 13 14 14 14 14 15 15 15 15 15 15 14 15 16 17 18 18 19 19 18 18 19 18 18 18 18 17 17 17 18 19 19
14 14 14 14 14 14 14 13 12 12 12 13 12 11 10 10 10 10 11 11 10 10 10 11 10 10 10 9 9 8 9 9 10 10 11 12 13 14 14 14 14 14 15 15 15 15 16 16 15 15 15 15 16 16 17 17 16 17 18 18 18 18 17 17 17 17 17 19 19
14 14 14 14 15 15 14 14 13 13 13 13 12 11 11 11 11 11 11 11 11 11 11 11 11 11 11 11 10 9 9 9 10 11 12 12 13 14 14 15 15 15 15 14 15 15 16 16 16 16 15 15 15 14 14 15 15 15 16 17 17 17 17 16 17 16 17 18 18
14 14 15 15 15 15 14 14 13 13 13 12 12 12 12 12 12 11 11 11 11 11 12 12 12 12 12 11 11 10 10 9 11 12 12 12 13 13 14 14 15 15 15 14 14 15 15 16 16 16 16 15 15 14 14 14 14 15 15 15 16 16 16 16 16 16 17 17 18
15 15 15 14 14 14 14 14 13 13 13 12 13 13 13 13 12 12 11 11 11 11 12 12 13 13 12 12 12 12 11 9 10 11 12 12 12 12 12 13 14 14 14 14 14 14 15 15 16 16 16 16 16 15 14 13 14 15 15 15 15 16 16 16 16 16 16 17 18
15 14 14 14 14 14 14 14 13 13 12 12 13 13 13 13 12 11 11 10 10 11 12 12 12 13 13 12 12 12 11 9 10 11 11 10 11 11 11 11 12 13 13 14 14 14 14 15 15 16 16 15 16 16 15 14 14 15 15 15 15 16 16 17 16 16 16 16 17
14 14 14 13 14 14 14 14 13 13 12 12 13 13 13 12 11 11 10 10 10 11 12 11 11 12 12 12 12 12 11 10 10 10 10 10 10 10 11 11 12 12 13 13 13 13 14 14 15 15 15 15 16 16 16 15 15 15 15 16 16 16 16 16 16 15 15 14 15
14 14 13 12 14 14 14 14 13 13 13 13 13 12 12 11 10 10 10 11 11 11 12 10 10 11 11 11 11 11 11 11 11 10 10 10 10 10 11 10 10 11 11 11 11 12 12 11 12 13 14 14 14 15 15 15 14 14 14 15 15 16 16 16 17 16 15 14 14
14 14 13 12 14 14 14 14 14 13 13 13 12 11 11 10 10 10 11 11 11 12 12 11 10 10 10 10 10 10 10 11 11 11 11 11 11 10 10 9 9 8 8 8 8 10 10 10 10 11 11 12 12 13 13 14 14 14 14 14 15 15 15 16 17 17 17 16 14
13 13 13 13 14 14 14 14 14 14 13 13 12 11 10 10 10 10 11 11 12 12 11 11 10 9 8 9 9 9 9 9 10 10 10 10 11 10 9 8 7 6 5 5 7 8 9 9 9 9 10 10 11 11 12 12 14 14 15 15 15 14 14 14 15 16 17 16 16
13 13 13 13 13 14 14 14 14 14 13 12 12 11 10 10 10 10 11 11 12 12 11 10 9 8 7 7 9 9 9 8 9 9 10 10 10 10 9 8 6 5 4 5 7 8 9 9 9 9 9 9 9 10 10 11 13 14 15 15 15 15 14 14 14 15 15 15 16
13 13 13 13 13 14 14 14 14 13 13 12 12 11 11 10 10 11 11 11 11 11 10 8 8 6 6 6 7 8 9 8 8 9 9 9 9 9 9 7 7 5 5 6 8 9 9 9 9 9 8 7 8 8 9 10 10 10 11 11 12 12 13 13 12 13 14 15 15
13 13 13 13 13 13 13 13 13 13 12 11 11 11 11 10 10 10 10 10 10 9 8 7 6 5 5 5 6 8 8 9 8 8 7 8 8 8 8 7 7 6 6 8 10 10 10 10 10 9 8 7 6 6 6 6 7 7 7 8 9 10 11 12 11 12 13 14 15
13 13 12 13 13 12 12 12 12 12 12 11 11 11 11 10 10 10 10 10 10 9 7 6 6 6 6 6 6 7 7 7 7 7 7 8 8 8 8 7 7 7 8 10 11 12 11 11 11 11 10 9 7 5 5 5 5 5 4 3 3 4 6 6 7 8 11 12 13
13 13 13 13 12 12 11 11 11 12 12 11 11 11 11 11 10 10 9 9 9 8 7 6 7 7 8 7 6 6 6 6 6 6 7 8 8 8 8 8 9 8 9 12 12 13 13 12 11 10 8 6 4 4 3 2 3 4 6 7 8 9 8 8 7 6 5 5 6
13 13 13 13 13 12 11 11 11 12 12 13 13 12 11 11 10 10 9 9 8 8 7 7 7 8 8 7 7 6 6 6 6 6 6 7 7 8 8 8 6 4 5 8 10 10 10 9 7 7 7 7 5 6 8 10 10 10 10 11 12 12 11 9 9 10 11 10 7
12 12 13 13 13 13 12 12 12 13 13 14 14 13 12 11 10 10 9 9 9 8 8 7 7 7 8 7 7 7 6 6 6 6 6 6 6 6 4 3 4 5 5 2 5 7 8 10 13 14 15 13 12 12 12 11 10 9 10 11 12 12 12 12 11 10 10 10 9
12 12 12 13 13 13 13 13 13 13 14 14 14 13 12 11 10 10 9 8 8 8 8 7 7 7 6 5 5 5 5 5 5 5 5 5 4 5 8 8 7 7 6 7 11 13 15 16 17 17 16 15 13 12 12 13 12 11 12 12 12 13 13 13 13 13 12 11 9
12 12 12 12 13 13 13 13 13 13 13 13 13 13 12 11 10 10 9 8 8 7 7 5 5 5 7 8 8 8 8 7 6 5 5 6 10 12 12 12 10 10 9 10 15 18 18 18 18 18 17 14 12 12 13 14 14 14 14 14 15 15 15 15 14 14 13 12 11
13 12 11 11 12 13 13 13 13 13 13 13 12 12 12 11 10 10 9 8 7 7 9 11 12 13 14 15 15 16 16 15 15 14 14 14 14 14 14 15 14 14 13 11 13 16 18 19 19 18 17 14 12 11 12 13 13 14 15 16 16 16 16 16 15 15 14 13 13
13 12 12 11 12 12 13 13 13 13 12 12 12 12 12 12 11 10 9 9 11 12 13 13 14 14 15 15 15 15 15 16 16 16 16 15 15 15 16 17 16 16 16 15 12 12 13 16 17 18 16 13 12 12 12 11 11 12 14 15 15 15 15 14 15 16 17 17 16
13 13 12 11 11 12 12 12 13 12 12 12 11 11 11 11 10 10 11 12 13 14 14 14 15 15 16 16 16 17 18 17 17 17 17 17 16 16 17 17 17 16 16 17 15 13 11 11 13 15 15 14 13 12 11 11 11 12 12 13 14 14 14 13 13 15 18 21 21
12 12 12 12 11 11 11 12 12 12 12 11 11 11 10 9 10 11 13 13 14 14 15 15 16 16 16 17 17 18 19 19 19 19 19 18 18 17 17 17 16 16 17 18 17 15 14 13 13 13 14 14 13 12 11 11 12 12 12 12 12 13 14 13 12 14 17 22 25
11 11 12 11 11 11 12 12 12 12 11 11 11 11 11 13 13 14 14 14 15 15 16 16 17 16 16 17 18 19 20 20 20 20 20 19 19 19 18 17 17 17 18 20 19 18 16 15 14 13 13 12 11 11 10 11 12 13 12 11 11 11 12 12 12 13 14 18 22
10 11 11 11 11 12 12 12 12 11 11 11 13 13 14 14 15 15 15 15 16 15 15 15 17 17 17 17 17 19 20 21 21 20 20 19 19 19 18 18 18 18 18 20 21 20 19 17 15 14 12 11 11 10 10 10 12 13 13 12 11 11 11 12 12 12 13 15 16
Wind_Direction
198 195 192 193 197 200 200 194 193 193 192 190 191 189 187 186 185 186 187 192 192 190 188 191 192 193 190 184 182 184 187 189 187 186 185 186 188 189 190 191 188 188 189 191 190 191 193 193 192 190 189 191 192 192 191 191 192 191 188 184 182 181 182 183 183 181 179 177 179
197 194 191 190 195 200 202 196 192 192 192 191 192 190 187 186 186 185 186 190 191 188 186 188 192 195 193 187 183 184 187 188 187 187 187 189 190 191 191 192 190 189 189 191 190 191 192 193 191 189 188 189 190 190 190 190 191 192 191 188 182 178 178 182 182 181 180 179 179
196 193 191 190 194 199 201 197 193 193 193 190 191 189 187 187 187 186 186 188 189 187 185 186 190 194 194 191 186 186 187 188 187 188 188 190 191 191 191 192 192 191 190 190 191 192 192 192 190 187 186 186 188 189 189 189 190 192 192 190 184 179 178 180 180 179 179 180 182
196 194 191 191 195 198 200 198 194 193 192 188 187 187 187 188 188 187 186 186 187 187 186 186 190 192 193 193 190 188 187 187 189 189 189 190 190 191 191 192 192 191 191 190 192 193 193 191 189 186 184 184 186 187 188 187 188 191 193 192 188 184 182 181 179 179 179 182 185
196 194 192 191 194 197 199 199 195 193 190 187 184 184 185 188 188 187 186 186 186 186 187 189 191 192 192 192 191 189 187 187 190 191 191 190 189 189 190 191 191 191 191 190 191 192 192 190 188 186 185 185 187 189 188 186 188 190 192 193 192 190 187 185 182 181 182 185 188
196 195 193 192 194 197 199 199 195 193 191 188 185 184 184 186 186 185 184 184 184 185 187 191 195 195 192 190 190 188 187 186 190 193 194 192 190 188 188 190 191 191 190 190 190 189 188 187 187 186 187 187 190 190 188 186 188 189 190 190 191 192 191 191 188 187 187 188 190
195 195 194 193 194 196 198 198 195 194 193 192 188 186 184 183 183 183 182 180 180 182 185 191 197 198 194 190 189 187 184 184 188 193 196 195 192 189 188 189 190 191 190 189 188 187 186 185 186 185 185 184 188 189 187 186 187 188 187 186 186 187 191 194 194 194 194 194 193
195 196 196 195 195 196 197 197 195 194 194 195 190 187 185 183 182 181 179 177 179 181 185 192 199 199 196 192 190 186 182 180 185 191 195 195 193 191 189 189 190 191 191 190 189 187 186 185 187 186 184 183 185 187 187 186 187 187 186 182 181 183 188 193 195 198 199 199 198
194 196 197 197 196 196 196 196 194 194 194 196 192 188 185 185 183 180 177 177 179 182 185 192 198 199 198 196 192 187 182 179 183 188 193 195 194 193 191 189 190 191 192 191 190 188 186 186 188 187 185 186 186 187 187 186 188 188 186 182 180 181 185 192 195 198 200 201 199
193 194 195 196 196 196 196 195 194 193 193 195 192 189 186 186 184 181 177 177 180 183 187 191 195 197 199 197 195 191 186 181 182 186 191 194 194 194 192 190 190 190 191 191 190 189 188 187 189 188 187 188 188 187 186 186 189 190 190 187 184 183 185 191 195 196 198 200 199
192 193 193 194 194 194 194 193 192 191 191 193 193 190 188 188 186 183 180 179 181 186 189 191 194 196 198 199 196 194 190 185 183 185 188 192 194 194 194 192 190 189 189 190 190 189 189 190 191 191 190 190 190 188 186 186 189 192 193 193 191 189 190 193 195 196 197 200 201
191 191 192 192 192 192 192 191 190 189 190 191 192 191 189 189 188 187 185 182 184 187 190 191 193 196 198 200 198 195 192 189 186 186 188 191 194 195 195 193 190 188 187 189 188 189 190 192 193 193 193 191 191 189 187 186 189 192 194 196 196 196 197 198 199 199 200 201 203
189 189 190 191 190 191 191 190 189 189 190 190 191 189 188 189 191 191 189 185 187 189 189 188 192 196 199 200 197 195 194 192 190 189 190 191 194 195 195 194 190 188 186 186 186 188 190 193 194 195 194 192 191 190 188 187 189 191 194 196 197 200 202 203 204 204 204 204 206
188 188 188 189 189 189 190 189 189 189 189 190 190 187 185 188 192 193 191 188 191 190 187 185 190 195 199 199 197 195 194 194 193 193 192 191 193 195 196 195 192 188 186 185 187 189 191 193 195 195 194 192 190 189 188 188 189 191 193 195 197 200 202 205 206 207 208 208 209
187 186 186 186 186 186 187 188 187 188 189 189 188 185 184 187 192 194 194 192 193 190 185 180 187 193 198 198 196 195 194 194 195 195 195 193 193 195 196 196 192 189 187 186 188 190 193 194 195 195 194 192 190 189 189 189 191 192 193 195 196 198 200 203 205 207 208 210 211
186 184 184 184 183 184 184 185 185 186 188 188 187 184 184 186 190 193 194 194 193 188 182 179 184 190 194 195 195 194 194 194 196 197 198 196 195 195 196 195 193 191 189 189 190 192 193 193 193 193 192 191 190 189 190 190 192 193 193 195 195 196 198 201 203 205 207 209 211
184 182 181 181 181 182 182 183 183 184 186 187 186 185 185 185 189 192 193 192 190 185 181 182 183 185 188 190 192 193 194 195 196 198 200 201 199 198 197 195 194 193 192 191 192 193 194 193 193 193 192 192 191 191 192 192 192 193 193 194 196 197 198 200 202 204 207 209 211
182 179 178 179 180 181 182 182 182 183 184 186 186 185 186 187 189 190 190 189 188 185 183 183 183 183 183 184 188 193 196 198 199 201 202 204 203 201 198 197 196 195 194 193 193 194 195 195 194 194 194 193 194 194 194 194 193 193 193 194 196 198 200 201 203 204 206 209 211
178 176 176 178 180 181 182 181 181 182 183 184 185 186 187 188 187 186 185 186 187 187 185 184 185 184 183 182 187 193 198 202 204 205 206 207 205 203 200 198 196 195 194 193 195 196 197 197 196 195 194 195 196 197 198 198 198 196 195 195 196 198 200 202 203 205 207 209 210
176 175 176 177 179 181 181 181 181 182 182 183 185 186 186 185 182 181 182 184 187 187 187 186 187 186 184 184 189 194 199 204 207 208 208 207 206 204 201 198 197 195 194 194 195 197 198 198 197 196 196 196 197 199 201 202 203 202 200 199 199 200 201 203 204 206 208 209 210
176 174 175 176 178 180 181 181 181 182 183 184 185 185 184 179 179 180 182 183 186 188 189 189 189 187 186 187 192 196 199 203 205 207 207 206 205 202 200 197 196 194 194 193 195 197 198 199 199 198 198 198 199 200 201 203 204 205 204 203 203 204 205 205 206 206 207 208 209
176 174 174 175 178 180 181 181 180 182 184 186 185 184 181 177 177 178 180 182 186 189 190 190 189 188 188 189 193 195 197 199 202 203 204 203 203 201 198 196 194 193 193 193 194 196 197 199 199 199 199 200 201 202 202 203 204 204 205 206 207 208 208 209 208 207 206 206 206
175 172 172 175 178 179 180 179 179 181 185 188 186 183 180 176 175 175 177 182 187 190 190 188 188 188 188 189 192 194 194 195 198 200 201 201 201 200 199 198 196 194 193 194 194 195 196 198 199 200 200 201 202 204 204 204 204 204 205 207 208 210 211 212 210 208 205 203 202
172 169 170 175 178 179 178 177 177 180 185 189 186 183 178 173 172 174 179 183 187 190 190 187 186 185 186 188 190 192 192 193 196 198 199 200 200 200 200 200 200 198 197 195 195 194 194 195 197 199 200 202 203 205 206 205 206 206 207 209 211 213 214 215 213 211 207 203 200
168 167 170 175 177 178 177 175 176 179 183 187 184 180 174 169 172 176 181 184 186 188 188 187 185 183 182 184 187 190 192 194 195 197 198 199 199 200 201 201 201 201 200 197 193 190 190 192 195 198 200 202 204 205 207 208 210 211 212 214 215 216 217 217 215 213 210 207 203
165 167 171 175 177 177 176 174 175 177 180 182 179 175 170 169 175 179 182 183 184 186 186 188 184 181 178 178 181 186 190 193 195 196 197 198 198 199 200 199 198 198 196 188 180 181 184 188 191 195 198 202 204 207 209 211 213 214 216 218 218 218 218 217 215 213 211 210 207
164 167 171 174 177 177 176 174 174 176 178 179 175 171 169 172 177 180 181 182 182 183 184 187 181 176 174 178 181 183 186 188 192 195 197 197 197 198 198 197 194 191 182 164 165 170 175 179 180 183 188 196 200 203 207 211 214 216 218 219 220 219 218 217 215 213 211 210 210
165 168 171 173 177 178 176 174 173 173 175 175 171 168 168 174 178 180 180 180 180 180 180 180 172 169 171 181 183 183 184 186 190 194 196 197 197 197 197 197 195 188 170 154 160 165 169 170 170 170 174 183 189 194 199 204 208 212 214 217 219 220 221 220 217 214 211 209 209
166 168 170 174 177 178 176 173 171 169 170 170 167 166 167 174 176 177 176 176 176 176 173 168 159 161 172 185 186 186 185 186 188 190 192 194 195 195 195 194 191 179 162 154 161 165 167 168 167 167 168 174 178 182 186 190 194 198 202 205 209 212 214 215 215 214 212 210 209
167 168 171 174 176 177 176 172 168 165 164 163 163 164 166 170 171 171 172 173 174 172 167 159 155 162 174 186 187 188 186 185 184 185 188 191 192 192 190 190 192 180 165 159 164 167 170 171 171 172 173 176 179 182 185 187 190 193 197 204 223 236 241 244 240 230 222 219 214
168 169 171 173 174 176 176 172 166 162 160 160 163 163 164 165 166 168 170 172 169 164 159 157 161 168 175 182 183 184 183 178 178 181 186 189 190 190 189 188 193 182 167 162 168 171 173 174 173 170 167 166 173 175 160 85 55 47 42 38 34 32 31 32 20 359 326 286 242
169 169 170 171 172 173 173 171 166 162 160 161 163 163 162 162 165 168 170 168 162 157 155 161 167 172 175 177 177 178 177 173 176 181 187 190 190 190 188 188 181 158 140 160 169 170 167 158 137 113 91 73 61 69 77 75 69 64 59 54 49 45 42 40 36 32 26 17 4
169 169 169 169 169 169 169 168 165 163 162 163 163 162 161 162 166 168 167 163 158 156 157 165 170 173 174 173 174 176 176 174 175 178 183 189 187 178 161 118 72 55 51 94 130 127 115 102 91 85 80 75 74 73 73 77 76 71 64 58 52 48 45 42 38 33 29 27 21
170 170 169 167 165 164 164 165 164 163 162 162 161 161 160 162 165 164 161 156 154 155 159 166 171 172 170 166 169 171 170 169 171 173 174 172 124 82 67 55 41 34 46 85 96 97 96 95 93 90 86 82 81 80 78 75 72 68 64 59 54 49 45 41 37 33 29 26 29
171 171 169 166 163 161 160 161 161 162 162 162 160 159 158 160 161 157 152 149 151 152 147 131 111 87 69 54 52 49 45 41 40 51 72 84 73 65 57 49 40 35 48 90 101 104 104 102 99 94 90 85 84 82 79 76 74 70 66 62 56 50 46 43 38 34 31 30 37
169 169 168 166 163 160 159 159 159 160 161 161 159 158 157 157 156 152 146 142 128 107 91 82 74 66 59 53 49 46 45 45 43 44 49 58 63 64 61 55 45 36 37 60 91 104 108 108 104 99 94 90 89 86 83 80 76 72 69 65 60 55 51 48 43 38 35 34 40
167 166 166 166 165 163 161 159 159 160 161 161 159 157 157 157 153 145 130 111 94 84 78 77 76 73 69 64 59 53 49 49 50 49 48 49 57 62 63 60 50 41 35 37 54 76 93 103 104 102 100 98 96 93 89 85 81 76 72 69 64 59 55 52 48 44 41 39 42
167 164 164 166 167 165 162 159 159 160 161 159 157 157 157 155 144 123 102 90 90 88 85 79 76 74 71 68 63 56 50 48 49 50 51 49 53 59 63 62 54 45 38 34 37 44 55 71 87 95 100 103 102 99 94 90 85 80 76 72 67 63 59 57 53 49 46 44 45
171 165 163 167 167 165 161 160 160 160 159 157 156 152 143 120 104 94 88 88 88 87 83 80 77 76 74 72 68 61 55 51 50 51 52 51 51 54 59 61 54 46 39 35 37 40 45 51 64 78 90 99 100 99 97 94 89 85 81 77 73 67 63 60 58 55 52 49 49
175 166 162 165 166 164 162 160 160 158 155 151 140 125 108 91 89 88 88 87 85 83 82 81 79 78 76 73 71 67 62 57 54 53 53 53 51 52 54 57 53 46 41 37 38 41 46 51 58 68 80 91 94 96 97 96 92 88 83 80 78 73 68 63 61 59 56 53 52
174 165 160 160 162 161 160 158 153 146 134 115 103 98 94 92 92 91 89 88 86 85 84 83 80 78 76 74 73 71 67 63 58 56 54 54 52 51 51 53 51 48 43 40 40 42 46 50 56 64 75 87 91 94 95 96 93 90 86 83 81 79 75 70 66 63 60 58 56